Home   Weather   Bad Neuenahr-Ahrweiler   Past weeks

Flag for Germany Past Weather in Bad Neuenahr-Ahrweiler, Rhineland-Palatinate, Germany — Yesterday and Last 2 Weeks

Now
41 °F

Low clouds.


Feels Like: 35 °F
Forecast: 32 / 51 °F
Wind: 8 mph from West

Location: Aachen-Orsbach

Current Time: Apr 25, 2017 at 9:07:37 am

Latest Report: Apr 25, 2017 at 7:00 am


Visibility: 5 mi

Pressure: 29.77 "Hg

Humidity: 93%

Dew Point: 39 °F

Location of Bad Neuenahr-AhrweilerLocation

Past Weather in Bad Neuenahr-Ahrweiler — Graph

°F

Bad Neuenahr-Ahrweiler Temperature Yesterday

Maximum temperature yesterday: 56 °F (at 4:00 pm)
Minimum temperature yesterday: 36 °F (at 4:00 am)
Average temperature yesterday: 47 °F

High & Low Weather Summary for the Past Weeks

 TemperatureHumidityPressure
High57 °F (Apr 12, 6:00 pm)98% (Apr 15, 12:00 pm)30.65 "Hg (Apr 15, 12:00 pm)
Low32 °F (Apr 20, 4:00 am)35% (Apr 20, 4:00 pm)29.72 "Hg (Apr 25, 3:00 am)
Average44 °F71%30.21 "Hg
* Reported Apr 10 7:00 am — Apr 25 7:00 am, Bad Neuenahr-Ahrweiler, Weather by CustomWeather, © 2017

Note: Actual official high and low records may vary slightly from our data, if they occured in-between our weather recording intervals... More about our weather records

Advertising

Bad Neuenahr-Ahrweiler Weather History for the Previous 24 Hours

Scroll right to see more
 ConditionsComfort  
Time TempWeatherWind HumidityBarometerVisibility
7:00 am
Tue, Apr 25
41 °FLow clouds.8 mph93%29.77 "Hg5 mi
6:00 am40 °FRain. Low clouds.3 mph94%29.76 "Hg2 mi
4:00 am41 °FLight rain. Low clouds.7 mph91%29.75 "Hg4 mi
3:00 am47 °FOvercast.7 mph77%29.72 "Hg9 mi
1:00 am47 °FOvercast.5 mph72%29.76 "Hg22 mi
12:00 am48 °FOvercast.6 mph67%29.78 "Hg25 mi
10:00 pm
Mon, Apr 24
50 °FOvercast.5 mph62%29.82 "Hg16 mi
9:00 pm50 °FOvercast.3 mph62%29.83 "Hg17 mi
7:00 pm55 °FOvercast.5 mph50%29.85 "Hg16 mi
6:00 pm56 °FOvercast.7 mph48%29.87 "Hg14 mi
4:00 pm56 °FOvercast.8 mph46%29.92 "Hg25 mi
3:00 pm55 °FPartly sunny.7 mph48%29.96 "Hg25 mi
1:00 pm54 °FScattered clouds.6 mph50%30.01 "Hg25 mi
12:00 pm52 °FPartly sunny.7 mph55%30.04 "Hg25 mi
10:00 am47 °FPartly sunny.7 mph56%30.08 "Hg25 mi
9:00 am44 °FScattered clouds.6 mph61%30.10 "Hg25 mi
Weather by CustomWeather, © 2017

See weather overviewHow to use our weather pages